Wind_Speed
25 29 25 32 26 22 20 19 16 23 30 26 29 27 26 25 23 20 22 20 19 18 17 19 22 24 26 26 26 26 26 26 26 26 25 25 24 25 23 23 24 23 25 27
28 26 24 26 24 23 13 16 17 13 18 23 24 26 26 26 24 27 23 24 23 22 20 20 22 25 26 27 28 28 28 28 28 28 27 27 26 25 24 25 26 26 28 28
27 22 28 20 17 21 17 17 13 11 10 18 20 26 28 32 32 29 29 25 26 25 24 23 23 25 27 29 29 30 30 30 31 30 29 28 27 26 26 28 27 28 27 26
24 20 19 31 25 14 16 16 12 13 15 10 16 7 21 28 33 35 38 33 27 27 27 29 28 27 27 30 31 32 32 32 32 31 30 29 29 31 32 30 23 26 24 21
23 27 27 17 26 23 15 13 11 13 16 9 15 10 16 20 28 29 33 42 35 33 29 33 33 31 30 31 32 32 33 34 33 32 32 32 32 32 31 25 19 22 20 19
24 19 23 28 17 19 19 14 10 11 15 9 19 21 11 24 24 25 31 34 41 46 39 35 37 34 34 35 35 34 37 37 36 36 38 38 39 24 28 20 16 18 20 22
22 21 23 26 20 17 22 18 6 4 5 5 13 17 26 10 14 15 23 28 30 34 35 37 37 37 37 37 36 39 40 42 41 40 39 40 41 17 18 22 27 25 26 20
20 12 24 21 25 21 23 27 8 5 5 4 17 12 10 18 26 17 19 25 27 30 33 37 38 39 38 41 44 45 34 38 37 39 40 42 33 25 24 20 22 26 22 24
11 9 26 22 24 22 21 27 17 4 2 2 9 11 12 17 22 29 25 25 26 27 29 31 34 36 39 39 43 35 28 35 27 23 18 17 16 28 18 15 18 20 22 25
9 5 12 28 23 25 18 26 14 12 6 5 7 8 11 18 23 25 29 27 26 26 26 27 27 30 33 34 30 34 23 23 26 25 24 25 16 15 16 18 20 21 24 26
12 7 7 17 17 25 28 25 19 13 8 3 2 4 10 18 19 22 24 26 23 24 26 28 30 27 24 24 24 24 10 4 7 7 9 11 13 16 19 20 22 23 24 26
21 8 6 15 12 18 25 20 30 15 7 9 1 6 4 9 15 20 24 26 26 28 25 20 20 21 21 13 6 6 5 3 5 9 12 14 17 19 21 24 25 26 28 30
29 11 6 7 13 17 25 28 21 25 12 14 6 4 9 12 16 21 25 27 27 24 24 20 18 14 8 7 4 3 3 7 10 14 16 18 20 22 24 26 27 29 31 33
23 15 9 4 5 14 14 23 27 26 18 15 18 12 10 11 17 20 27 27 21 28 10 5 5 10 12 11 7 5 7 11 14 17 19 20 22 23 25 27 29 31 33 35
12 12 11 8 8 6 7 11 18 28 23 14 13 20 20 13 16 20 26 29 29 23 12 16 14 11 8 7 7 10 12 16 19 21 22 23 24 25 27 30 32 35 37 39
15 10 16 12 9 9 12 13 13 14 22 26 24 20 14 15 19 24 26 28 26 18 17 17 13 10 10 11 13 14 18 21 22 23 24 25 27 30 32 33 35 37 38 40
19 16 12 7 11 9 12 21 21 21 17 19 27 22 17 13 13 20 25 26 25 21 18 16 13 14 15 16 16 19 22 24 25 25 27 29 31 32 34 35 37 39 41 42
20 20 12 6 12 5 9 10 14 22 16 18 17 20 20 18 14 17 22 23 24 21 20 18 17 18 19 18 20 23 26 27 27 29 30 31 32 34 36 37 39 41 42 43
18 22 11 7 11 7 10 13 12 19 19 22 24 22 21 21 20 24 26 26 24 22 21 21 21 22 20 20 24 27 28 29 31 30 31 33 35 36 39 41 42 42 42 43
20 27 18 12 5 6 11 15 12 12 23 18 22 26 24 23 31 29 28 28 27 25 24 25 24 21 21 25 28 30 30 31 32 33 34 35 37 39 41 42 43 42 41 40
25 24 21 17 8 8 16 10 11 14 8 9 19 23 26 24 19 21 23 25 25 26 28 25 23 24 27 29 30 31 31 33 33 34 35 37 40 42 42 41 40 40 40 40
16 15 15 18 13 13 14 16 18 14 14 10 13 20 24 22 18 15 23 25 26 26 24 25 27 29 30 30 30 32 33 33 34 35 37 40 42 42 41 41 41 41 41 40
14 19 12 15 11 12 8 12 13 17 12 13 7 20 22 20 18 17 19 23 24 23 24 26 28 29 29 30 32 32 32 33 34 36 40 42 42 41 41 41 41 41 40 40
15 15 21 20 17 14 12 11 8 11 13 10 11 17 20 17 16 14 15 18 22 24 26 27 26 27 30 31 30 31 32 33 36 39 41 42 42 41 41 40 40 39 39 39
17 19 21 24 22 19 16 11 11 5 8 13 5 6 16 18 19 19 20 22 24 24 24 25 27 28 28 29 30 30 32 36 39 41 41 40 39 39 40 40 39 38 39 39
16 21 24 22 18 22 22 20 16 11 9 9 10 11 14 17 20 21 21 20 21 23 25 26 26 26 27 28 30 32 35 38 41 41 41 39 40 40 39 37 36 36 37 39
Wind_Direction
193 205 198 214 220 215 217 215 192 206 221 236 249 249 251 253 251 247 233 228 227 223 217 218 218 220 220 221 221 221 220 222 224 226 230 235 240 247 255 260 262 266 276 282
210 201 209 225 210 218 194 198 221 219 211 224 239 243 247 250 240 238 237 229 230 230 223 225 225 226 228 228 228 227 228 228 231 233 236 240 246 253 258 263 268 276 281 287
214 223 215 218 215 216 227 209 201 198 201 225 243 253 245 242 243 239 230 228 230 234 232 227 226 229 233 234 234 234 233 232 235 237 240 244 247 253 257 267 273 283 288 293
215 197 215 220 218 210 218 231 223 226 231 238 232 264 242 238 235 241 234 228 229 231 236 239 237 235 235 238 240 240 240 239 239 241 244 245 250 252 256 263 275 285 288 286
208 224 214 213 230 223 225 231 213 221 239 230 213 235 249 230 236 239 238 237 235 234 238 241 241 241 239 238 241 244 244 243 242 242 242 244 245 252 252 247 272 281 278 288
215 215 209 219 223 209 214 206 181 203 226 235 228 220 255 243 245 243 233 233 235 237 244 244 244 242 242 241 239 241 243 242 241 241 244 245 246 241 247 254 253 262 277 295
200 204 202 207 199 188 195 172 157 197 222 234 188 219 231 221 231 238 239 241 238 237 241 241 245 245 241 240 245 245 241 240 242 241 241 238 242 227 227 230 236 253 275 287
187 196 205 200 202 205 207 196 199 210 191 162 182 222 230 225 230 227 225 229 236 240 240 241 241 245 254 250 254 235 214 227 228 234 236 241 237 242 249 254 269 271 307 308
176 188 201 201 202 198 211 219 201 108 119 164 201 238 231 216 217 223 225 225 231 238 244 248 250 247 246 254 236 219 215 233 224 240 255 248 259 285 309 328 312 300 290 290
203 170 186 206 202 204 211 211 194 203 185 222 204 242 222 215 218 216 220 226 227 231 235 235 234 236 239 237 239 260 246 268 271 269 268 280 341 324 310 305 305 303 297 294
191 182 189 189 201 208 201 196 205 203 207 242 195 219 233 226 218 225 219 221 222 227 228 234 238 246 252 251 255 265 281 340 4 352 333 321 314 309 305 302 299 299 300 302
208 224 210 207 217 224 203 204 208 216 210 218 243 267 284 246 227 216 221 218 215 216 230 237 245 249 244 240 137 94 64 16 322 309 308 310 306 305 303 303 306 306 306 305
200 203 156 193 223 228 227 228 234 229 247 214 202 245 228 235 226 216 212 216 217 222 229 236 229 208 144 132 157 195 306 321 313 309 308 307 304 305 303 302 302 305 306 306
202 205 197 193 171 201 212 228 229 225 223 220 221 242 255 247 227 213 203 215 217 218 215 208 208 170 175 189 208 256 296 307 308 305 301 298 296 296 297 301 304 305 305 306
184 187 183 147 131 165 207 229 223 215 233 240 250 251 247 254 239 211 208 208 211 228 221 215 194 190 204 234 262 285 302 309 310 304 300 298 299 302 303 306 307 309 311 312
213 197 210 222 227 227 234 228 221 229 236 241 249 244 240 239 223 207 205 197 215 225 219 207 201 216 240 255 272 291 304 306 305 298 297 300 302 305 308 310 311 311 311 310
201 210 194 211 214 218 252 240 236 240 245 251 243 245 236 229 223 219 214 214 219 231 220 212 216 234 249 264 277 293 300 302 299 296 300 302 305 307 308 310 311 310 310 311
202 197 192 195 168 221 245 233 229 238 244 233 231 239 240 245 232 223 216 221 222 221 216 217 231 246 256 269 285 294 297 299 297 296 300 303 306 308 309 310 311 312 313 312
209 195 201 193 210 270 246 240 236 227 234 229 228 231 230 216 223 225 215 214 221 222 220 229 241 251 263 277 287 293 295 292 294 299 303 305 307 309 311 313 312 311 311 310
192 203 204 188 193 218 233 232 234 239 259 245 238 233 227 218 219 219 212 210 212 216 227 237 245 258 273 282 289 291 290 294 297 301 302 304 307 311 313 311 310 310 311 311
204 207 218 226 230 247 230 221 224 214 242 255 233 217 220 213 227 225 217 213 215 222 234 244 255 269 278 282 285 288 292 295 297 299 303 306 309 310 309 308 311 313 313 315
192 192 208 222 221 247 228 223 221 239 238 248 230 205 201 202 209 213 219 223 230 238 248 256 268 271 275 281 285 289 291 295 297 299 302 306 308 309 311 313 313 313 313 313
206 210 210 208 224 233 238 242 249 241 249 240 234 203 198 204 212 225 231 234 242 248 255 258 263 270 277 283 288 290 291 294 297 301 305 307 309 311 312 311 311 311 312 311
220 220 228 238 241 241 242 250 269 245 236 250 224 203 209 218 226 231 239 240 247 252 255 261 268 276 281 283 286 290 292 294 298 302 307 308 309 311 310 309 309 309 308 309
239 233 236 242 241 249 244 236 236 238 232 229 212 196 212 222 230 233 236 240 245 252 259 268 274 277 279 283 286 289 294 297 301 305 305 307 309 308 308 308 307 308 309 313
249 248 245 256 255 249 242 234 229 220 220 216 212 218 215 213 218 225 235 243 252 261 267 271 274 277 282 287 290 293 296 301 304 305 306 307 307 307 306 305 307 311 314 314
Height
3119 3122 3122 3127 3133 3137 3139 3140 3142 3145 3150 3156 3158 3160 3163 3164 3167 3171 3172 3173 3175 3176 3177 3178 3179 3180 3182 3183 3184 3185 3186 3187 3188 3188 3189 3190 3189 3188 3188 3186 3184 3183 3182 3180
3117 3118 3123 3126 3129 3133 3135 3136 3140 3143 3146 3152 3153 3155 3156 3157 3161 3166 3168 3168 3171 3172 3174 3175 3177 3178 3179 3180 3181 3182 3183 3183 3184 3185 3186 3186 3185 3185 3183 3182 3180 3179 3177 3175
3112 3116 3118 3120 3122 3129 3130 3132 3136 3140 3143 3146 3149 3147 3148 3152 3153 3157 3162 3164 3166 3168 3170 3171 3173 3174 3176 3176 3177 3178 3178 3179 3179 3180 3181 3182 3181 3179 3177 3176 3174 3173 3170 3168
3110 3113 3115 3121 3123 3126 3129 3131 3135 3137 3141 3143 3145 3142 3141 3145 3147 3150 3154 3158 3160 3162 3165 3167 3168 3169 3170 3171 3172 3172 3173 3174 3174 3175 3176 3176 3176 3172 3169 3167 3166 3167 3165 3162
3103 3108 3113 3118 3121 3126 3128 3129 3132 3136 3138 3138 3139 3142 3135 3139 3140 3142 3146 3150 3153 3156 3158 3161 3162 3164 3164 3165 3166 3167 3167 3168 3168 3169 3169 3168 3166 3167 3162 3159 3158 3162 3160 3158
3103 3107 3112 3117 3119 3123 3125 3129 3131 3135 3136 3134 3134 3138 3130 3132 3135 3136 3138 3142 3145 3149 3152 3154 3156 3157 3158 3158 3157 3159 3160 3160 3160 3161 3160 3159 3158 3155 3152 3151 3151 3152 3152 3150
3099 3104 3107 3111 3116 3118 3121 3125 3131 3134 3130 3125 3128 3133 3125 3129 3130 3132 3133 3136 3139 3141 3144 3147 3149 3149 3150 3150 3151 3151 3152 3149 3150 3150 3149 3148 3147 3147 3145 3142 3141 3142 3143 3143
3095 3102 3104 3106 3110 3113 3116 3121 3122 3121 3121 3123 3126 3123 3120 3122 3126 3126 3127 3130 3132 3134 3137 3140 3142 3142 3142 3143 3143 3141 3139 3138 3139 3140 3140 3138 3134 3138 3143 3138 3141 3140 3139 3139
3092 3096 3099 3103 3107 3112 3114 3113 3118 3119 3122 3122 3119 3118 3118 3117 3119 3120 3122 3123 3126 3129 3132 3135 3136 3137 3137 3136 3135 3131 3129 3128 3132 3134 3134 3132 3134 3140 3140 3136 3136 3133 3131 3131
3091 3094 3095 3098 3102 3106 3109 3113 3116 3119 3119 3117 3114 3113 3109 3109 3112 3115 3117 3120 3122 3125 3128 3130 3131 3131 3132 3131 3131 3133 3133 3133 3132 3133 3131 3132 3130 3133 3133 3132 3130 3126 3126 3125
3088 3092 3096 3098 3098 3100 3106 3107 3111 3112 3112 3109 3107 3105 3104 3106 3109 3111 3114 3117 3120 3123 3125 3126 3126 3128 3130 3131 3131 3132 3132 3131 3133 3132 3131 3130 3130 3131 3130 3128 3126 3124 3122 3120
3085 3089 3090 3093 3093 3095 3096 3100 3105 3107 3107 3107 3106 3103 3103 3104 3107 3109 3111 3115 3117 3120 3120 3124 3124 3125 3127 3128 3129 3129 3130 3131 3130 3131 3130 3128 3127 3126 3124 3123 3120 3117 3115 3113
3083 3087 3089 3091 3094 3092 3093 3096 3100 3103 3104 3103 3105 3101 3102 3103 3104 3105 3108 3113 3116 3118 3120 3123 3123 3123 3124 3127 3129 3129 3128 3128 3128 3127 3126 3124 3123 3120 3119 3117 3114 3112 3108 3106
3079 3083 3084 3085 3084 3087 3090 3091 3096 3101 3103 3102 3098 3099 3101 3101 3100 3103 3106 3112 3115 3116 3117 3120 3122 3121 3124 3126 3126 3126 3126 3125 3124 3124 3122 3121 3119 3117 3115 3112 3108 3105 3101 3097
3077 3080 3082 3084 3085 3086 3088 3090 3092 3095 3097 3098 3095 3096 3098 3099 3099 3102 3106 3109 3113 3115 3116 3118 3120 3122 3123 3124 3123 3124 3123 3122 3120 3122 3119 3117 3114 3110 3108 3104 3099 3096 3091 3086
3074 3077 3080 3083 3084 3086 3087 3088 3090 3091 3092 3091 3092 3093 3095 3096 3097 3100 3103 3106 3110 3112 3114 3116 3117 3120 3121 3122 3122 3120 3120 3119 3116 3117 3114 3110 3107 3103 3100 3096 3091 3087 3083 3078
3072 3075 3079 3081 3082 3084 3084 3080 3082 3084 3085 3086 3085 3090 3092 3094 3095 3096 3099 3104 3107 3110 3112 3113 3114 3117 3118 3117 3117 3117 3116 3113 3112 3110 3106 3104 3099 3096 3093 3088 3083 3079 3074 3068
3069 3073 3077 3078 3080 3081 3074 3075 3076 3078 3079 3080 3081 3084 3088 3091 3092 3094 3096 3100 3102 3105 3108 3110 3113 3113 3113 3112 3113 3112 3110 3108 3105 3102 3100 3096 3092 3089 3085 3080 3075 3068 3063 3059
3067 3071 3074 3076 3075 3073 3071 3071 3073 3072 3073 3074 3076 3080 3082 3084 3086 3087 3090 3095 3099 3102 3105 3107 3108 3109 3108 3108 3108 3106 3104 3101 3099 3095 3092 3088 3084 3080 3076 3070 3065 3060 3055 3050
3065 3069 3073 3073 3073 3071 3069 3070 3071 3071 3068 3070 3072 3074 3076 3079 3078 3082 3086 3090 3095 3098 3101 3103 3104 3105 3105 3104 3102 3099 3097 3095 3091 3087 3083 3080 3077 3073 3067 3061 3057 3051 3045 3040
3063 3065 3066 3068 3069 3067 3066 3066 3067 3070 3070 3064 3065 3068 3071 3073 3079 3081 3085 3088 3092 3095 3097 3099 3099 3100 3100 3098 3095 3092 3089 3086 3083 3080 3076 3072 3068 3063 3057 3052 3047 3041 3035 3029
3058 3061 3062 3065 3066 3065 3061 3062 3064 3063 3062 3062 3062 3064 3067 3071 3074 3078 3082 3085 3089 3092 3094 3095 3094 3094 3093 3091 3088 3085 3082 3079 3076 3073 3069 3065 3060 3054 3048 3042 3036 3031 3026 3021
3056 3055 3056 3058 3056 3056 3056 3057 3058 3058 3060 3061 3061 3062 3065 3068 3073 3077 3081 3084 3087 3088 3089 3089 3089 3088 3086 3083 3080 3077 3074 3072 3069 3065 3061 3056 3050 3043 3037 3032 3027 3022 3017 3012
3049 3049 3050 3052 3053 3053 3053 3055 3055 3055 3057 3059 3060 3061 3065 3068 3072 3075 3078 3080 3082 3083 3083 3083 3082 3081 3079 3076 3073 3071 3068 3065 3061 3056 3051 3045 3039 3034 3029 3024 3019 3013 3008 3002
3046 3045 3045 3044 3047 3049 3051 3053 3053 3053 3054 3057 3058 3060 3063 3066 3068 3071 3073 3074 3075 3076 3077 3077 3076 3074 3072 3069 3066 3063 3060 3056 3052 3047 3042 3036 3030 3025 3020 3015 3010 3004 2998 2991
3038 3038 3038 3039 3042 3042 3045 3047 3049 3051 3053 3055 3056 3058 3060 3063 3064 3066 3068 3070 3071 3071 3071 3070 3069 3067 3064 3061 3058 3055 3051 3047 3042 3037 3032 3026 3022 3017 3012 3007 3001 2995 2989 2982